Location: Vancouver
(49.2500°N, 123.1330°W)
Time: 17:17:12
(UTC-07:00)

Daily predictions for brighter satellites

Satellite Brightness Start Highest point End
(mag) Time Altitude Azimuth Time Altitude Azimuth Time Altitude Azimuth
NOSS 3-1 (A) 4.1 19:17:53 10° NW 19:25:18 83° NE 19:33:39 10° SE
FengYun 1-2 T 4.5 19:27:21 10° SE 19:32:44 51° ENE 19:38:06 10° N
Cosmos 1825 Rocket 4.3 19:28:38 10° NNW 19:33:00 61° W 19:37:23 10° S
NOSS 3-1 (C) 4.3 19:25:52 10° NW 19:33:17 76° SW 19:41:37 10° SSE
Cosmos 540 Rocket 4.4 19:29:51 10° SSE 19:33:55 24° E 19:38:00 10° NE
HJ-1C 4.3 19:31:53 10° SE 19:34:50 29° ENE 19:37:49 10° N
Cosmos 1943 4.0 19:29:52 10° SW 19:35:28 58° WNW 19:41:08 10° NNE
Cosmos 1763 Rocket 3.5 19:34:13 10° S 19:39:16 65° ESE 19:44:26 10° NNE
Cosmos 2184 Rocket 4.4 19:34:43 10° SSE 19:40:39 44° E 19:46:38 10° NNE
Meteor 2-13 Rocket 4.4 19:36:26 10° S 19:42:26 65° E 19:48:27 10° NNE
Cosmos 1340 Rocket 4.0 19:40:28 10° NNW 19:44:24 49° W 19:48:21 10° S
SL-08 ROCKET BODY 4.4 19:41:20 10° S 19:47:10 68° E 19:53:08 10° NNE
CZ-2D R/B 4.0 19:50:26 10° SE 19:53:54 33° ENE 19:57:22 10° N
Cosmos 1943 Rocket 4.4 19:51:30 10° NW 19:56:11 28° WSW 20:00:53 10° SSW
USA 267 3.8 19:50:06 10° ENE 19:56:29 56° NNW 20:02:51 10° W
BREEZE-M DEB (TANK) 4.5 19:49:30 10° SW 20:00:43 34° SSE 20:04:19 14° ESE
COSMO-SKYMED 1 3.7 19:57:04 10° N 20:01:17 50° WNW 20:05:29 10° SW
Cosmos 304 Rocket 3.7 19:57:04 10° SSW 20:01:50 72° ESE 20:06:39 10° NNE
ISS -1.7 20:01:31 10° SSE 20:02:53 12° SE 20:02:58 12° SE
Cosmos 2322 Rocket 4.4 20:06:29 10° N 20:07:41 11° NNE 20:08:54 10° NE
Cosmos 2084 3.4 20:07:22 10° SW 20:11:23 77° NW 20:15:15 10° NE
Thor Agena Rocket 3.6 20:06:34 10° NNE 20:11:52 87° ESE 20:17:04 10° SSW
Meteor 1-24 Rocket 3.9 20:07:23 10° NNW 20:13:24 83° W 20:19:13 10° S
Spot 2 Rocket 3.8 20:08:43 10° SE 20:13:31 46° ENE 20:18:19 10° N
Cosmos 1656 4.5 20:08:32 10° NNW 20:13:44 34° NE 20:17:15 18° ESE
Cosmos 1697 Rocket 3.8 20:12:20 10° NNW 20:17:12 28° NE 20:20:16 18° E
Cosmos 1980 Rocket 3.7 20:14:39 10° N 20:18:51 21° NE 20:21:38 15° ENE
SJ 16-02 1.3 20:14:50 10° NNW 20:19:15 68° ENE 20:23:17 12° SSE
ALOS 3.8 20:16:36 10° SSW 20:20:59 39° W 20:25:23 10° NNW
SJ-6B 3.1 20:17:11 10° S 20:21:09 70° WSW 20:25:03 10° NNW
H-2A R/B 3.4 20:21:46 10° S 20:25:25 54° W 20:29:10 10° NNW
Cosmos 1953 3.1 20:22:55 13° SSE 20:26:03 31° E 20:29:40 10° NNE
FREGAT/IRIS 4.4 20:23:22 10° SSW 20:26:10 34° W 20:28:59 10° NNW
Cosmos 1356 3.3 20:24:35 10° N 20:28:05 81° ENE 20:31:16 12° SSE
Resurs 1-3 3.6 20:26:48 11° SSE 20:30:58 66° ENE 20:35:19 10° N
YAOGAN 6 3.7 20:31:35 26° ENE 20:31:51 26° ENE 20:34:56 10° N
ERS-1 Rocket 4.3 20:32:12 19° ENE 20:33:16 21° ENE 20:36:55 10° NNE
Cosmos 372 Rocket 4.3 20:29:32 10° NNW 20:34:47 70° WSW 20:40:00 10° SSE
Cosmos 1125 Rocket 4.0 20:30:23 10° NNW 20:35:37 62° WSW 20:40:51 10° S
Cosmos 2228 4.4 20:31:57 10° SSW 20:36:05 42° WNW 20:40:13 10° N
Cosmos 1544 3.1 20:33:00 10° SSW 20:36:36 80° W 20:40:15 10° N
Envisat 2.9 20:41:26 13° SSE 20:45:56 78° ENE 20:51:03 10° NNW
Cosmos 2154 Rocket 3.9 20:39:46 10° S 20:45:58 73° E 20:52:15 10° NNE
Cosmos 2074 Rocket 4.4 20:40:39 10° SSW 20:46:47 65° WNW 20:52:59 10° N
SL-16 R/B 4.1 20:43:31 10° N 20:46:53 16° NNE 20:48:58 13° ENE
ARGOS 4.4 20:46:55 23° ENE 20:47:51 24° ENE 20:52:06 10° N
Cosmos 1674 2.5 20:46:17 10° N 20:50:03 81° E 20:51:42 32° SSE
Cosmos 1408 Rocket 4.3 20:46:14 10° N 20:50:08 32° ENE 20:50:11 32° ENE
Cosmos 1766 4.2 20:46:35 10° SSW 20:50:23 49° WNW 20:54:13 10° N
Cosmos 1900 4.4 20:47:47 10° SSW 20:52:47 57° ESE 20:57:51 10° NE
Cosmos 1812 Rocket 3.7 20:50:22 10° SSW 20:54:49 79° W 20:59:20 10° N
GP-B 3.1 20:50:43 10° N 20:55:12 84° W 20:59:38 10° S
Resurs 01 Rocket 2.0 20:53:17 11° S 20:57:32 65° WSW 21:01:56 10° NNW
Cosmos 2341 Rocket 3.9 20:53:42 10° S 20:59:49 67° E 21:06:01 10° NNE
COSMOS 2406 3.5 20:54:36 10° SW 21:00:18 68° WNW 21:06:04 10° NNE
SL-27 R/B 2.4 20:56:49 10° SSW 21:00:25 83° ESE 21:04:06 10° NNE
USA 186 2.9 21:05:15 31° WNW 21:05:15 31° WNW 21:06:52 10° NNW
ATLAS 2AS CENTAUR R/B 3.0 20:59:15 10° NW 21:07:25 79° NE 21:11:15 34° SE
Cosmos 2369 3.6 21:02:20 10° NNW 21:08:02 90° ESE 21:10:34 35° SSE
H-2A R/B 3.4 21:08:51 22° NE 21:08:51 22° NE 21:12:29 10° N
Cosmos 1758 3.5 21:06:56 10° SSW 21:10:56 72° W 21:14:57 10° N
Meteor 2-21 4.5 21:06:45 20° SSE 21:10:58 57° E 21:16:57 10° NNE
Nadezhda 3 Rocket 4.4 21:05:25 10° NNW 21:11:39 63° W 21:17:47 10° S
Helios 1A 3.2 21:13:42 51° ENE 21:13:42 51° ENE 21:17:33 10° N
Cosmos 1733 3.5 21:15:45 53° NNE 21:15:45 53° NNE 21:18:49 10° NNE
Cosmos 540 Rocket 4.2 21:10:12 10° SW 21:15:12 52° WNW 21:20:13 10° NNE
Cosmos 1766 Rocket 3.4 21:14:55 10° N 21:19:13 66° ENE 21:19:13 66° ENE
Cosmos 2366 rocket 4.2 21:18:51 44° ESE 21:19:47 47° E 21:25:45 10° NNE
Okean 3 Rocket 3.9 21:16:37 10° NNW 21:21:04 64° W 21:22:54 33° SSW
Meteor 2-15 Rocket 4.3 21:15:00 10° N 21:21:05 71° ENE 21:23:09 43° SSE
Cosmos 2084 Rocket 3.5 21:18:34 10° NW 21:21:57 55° N 21:21:57 55° N
Cosmos 2218 Rocket 4.0 21:23:24 45° SE 21:24:55 56° E 21:30:58 10° NNE
Cosmos 1939 Rocket 3.2 21:25:32 50° SW 21:26:14 59° W 21:30:10 10° NNW
Cosmos 2285 Rocket 3.9 21:21:13 10° S 21:27:34 66° ESE 21:33:57 10° NNE
BREEZE-M DEB (TANK) 4.2 21:22:57 10° W 21:27:40 80° SSW 21:34:15 34° ESE
SPOT 5 4.1 21:30:43 25° NE 21:30:43 25° NE 21:33:19 10° N
Cosmos 1295 Rocket 4.5 21:29:33 10° SSW 21:35:39 80° W 21:41:46 10° N
Cosmos 292 Rocket 4.1 21:31:27 10° SSW 21:36:16 67° WNW 21:41:09 10° NNE
Cosmos 1809 Rocket 4.3 21:31:41 15° S 21:36:48 89° E 21:42:57 10° N
ISS -0.8 21:35:35 10° SW 21:35:40 11° SW 21:35:40 11° SW
USA 267 4.0 21:35:23 25° ENE 21:38:54 46° N 21:45:05 10° WNW
Cosmos 2082 Rocket 3.7 21:42:52 22° NE 21:42:52 22° NE 21:44:52 10° NE
MetOp-B 4.1 21:40:36 63° ENE 21:40:36 63° ENE 21:45:54 10° N
Cosmos 1470 3.4 21:42:23 54° NW 21:42:23 54° NW 21:45:49 10° N
Cosmos 2278 4.2 21:36:34 10° NW 21:42:06 54° WSW 21:43:56 38° SSW
BREEZE M DEB (TANK) 4.2 21:24:28 10° W 21:42:58 88° N 21:44:29 55° E
Cosmos 1727 Rocket 3.9 21:40:29 10° N 21:46:49 76° E 21:47:43 65° SE
SL-8 Rocket 3.9 21:44:03 32° S 21:47:08 88° W 21:53:21 10° N
Meteor 2-16 Rocket 4.3 21:46:51 68° SE 21:47:17 71° E 21:53:22 10° NNE
BREEZE M DEB (TANK) 3.9 21:46:39 10° W 21:48:42 26° W 21:48:42 26° W
Cosmos 2322 Rocket 3.3 21:48:39 10° NNW 21:53:17 32° NE 21:53:17 32° NE
SJ 16-02 4.1 21:54:51 10° WNW 21:57:16 15° W 21:59:41 10° SW
Meteor 2-14 Rocket 4.4 21:55:37 52° SSW 21:57:17 86° W 22:03:27 10° N
Cosmos 1656 4.3 21:52:07 10° NW 21:57:35 50° WSW 21:58:43 43° SW
Cosmos 2360 Rocket 3.9 21:57:20 10° N 22:01:20 20° NE 22:01:20 20° NE
Cosmos 1697 Rocket 2.8 21:56:00 10° NNW 22:01:38 65° WSW 22:02:01 63° SW
Cosmos 1953 4.5 21:59:06 10° SW 22:02:30 26° WNW 22:05:57 10° NNW
Meteor 2-21 Rocket 4.5 22:01:30 43° SSW 22:03:38 76° WNW 22:09:47 10° N
Cosmos 1980 Rocket 2.2 21:58:02 10° NNW 22:03:24 78° N 22:03:24 78° N
ERS-1 Rocket 3.3 22:12:13 61° WNW 22:12:13 61° WNW 22:16:37 10° NNW
SPOT 1/Viking Rocket 4.4 22:15:58 43° N 22:15:58 43° N 22:19:32 10° N
Cosmos 1818 3.9 22:12:11 10° NW 22:16:50 62° WNW 22:16:50 62° WNW
ARGOS 3.6 22:28:27 57° WNW 22:28:27 57° WNW 22:33:05 10° NNW
Terra 3.7 22:30:37 23° N 22:30:37 23° N 22:32:36 10° N
SL-16 R/B 3.1 22:26:43 10° NNW 22:30:50 43° N 22:30:50 43° N
H-2A R/B 3.3 22:49:30 36° NW 22:49:30 36° NW 22:52:39 10° NNW
ATLAS 2AS CENTAUR R/B 4.1 22:51:03 10° NW 22:57:46 31° WSW 22:58:42 30° SW
Cosmos 1833 Rocket 4.1 23:00:56 34° N 23:00:56 34° N 23:04:26 10° NNE
Cosmos 2219 Rocket 4.3 23:02:17 10° N 23:05:08 18° NNE 23:05:08 18° NNE
CZ-3A R/B 3.9 22:50:25 10° WNW 23:09:20 89° SSW 23:09:31 87° SE
NOSS 3-4 (A) 4.2 23:03:45 10° NW 23:09:15 58° WNW 23:09:15 58° WNW
NOSS 3-4 (C) 4.2 23:03:51 10° NW 23:09:21 59° WNW 23:09:21 59° WNW
USA 267 3.8 23:22:44 53° NNW 23:22:44 53° NNW 23:27:52 10° WNW
Cosmos 2082 Rocket 3.8 23:24:38 31° NNW 23:24:38 31° NNW 23:28:51 10° NNE
Cosmos 2322 Rocket 4.0 23:32:33 10° NW 23:35:05 27° NW 23:35:05 27° NW
Cosmos 2360 Rocket 4.1 23:40:42 10° NNW 23:43:05 26° NNW 23:43:05 26° NNW
